Satellite: NO-44
Catalog number: 26931
Epoch time:      11103.68002593
Element set:     726
Inclination:      067.0514 deg
RA of node:       149.7432 deg
Eccentricity:    0.0007329
Arg of perigee:   265.9947 deg
Mean anomaly:     094.0319 deg
Mean motion:   14.29648113 rev/day
Decay rate:       -4.4e-07 rev/day^2
Epoch rev:           49770
Checksum:              311

Satellite: SO-50
Catalog number: 27607
Epoch time:      11103.64816285
Element set:     439
Inclination:      064.5577 deg
RA of node:       163.7834 deg
Eccentricity:    0.0065534
Arg of perigee:   335.7631 deg
Mean anomaly:     024.0394 deg
Mean motion:   14.71697032 rev/day
Decay rate:       4.47e-06 rev/day^2
Epoch rev:           44659
Checksum:              321

Satellite: CO-55
Catalog number: 27844
Epoch time:      11104.58554997
Element set:      87
Inclination:      098.7076 deg
RA of node:       114.2095 deg
Eccentricity:    0.0010424
Arg of perigee:   025.8739 deg
Mean anomaly:     334.2947 deg
Mean motion:   14.20792447 rev/day
Decay rate:       2.41e-06 rev/day^2
Epoch rev:           40388
Checksum:              325

Satellite: CO-57
Catalog number: 27848
Epoch time:      11103.53305857
Element set:    0036
Inclination:      098.7145 deg
RA of node:       112.3407 deg
Eccentricity:    0.0010391
Arg of perigee:   034.1841 deg
Mean anomaly:     325.9993 deg
Mean motion:   14.20574176 rev/day
Decay rate:       2.32e-06 rev/day^2
Epoch rev:           40368
Checksum:              294

Satellite: AO-51
Catalog number: 28375
Epoch time:      11104.49568683
Element set:     944
Inclination:      098.0928 deg
RA of node:       086.3095 deg
Eccentricity:    0.0082937
Arg of perigee:   263.7595 deg
Mean anomaly:     095.4157 deg
Mean motion:   14.40745021 rev/day
Decay rate:       1.83e-06 rev/day^2
Epoch rev:           35689
Checksum:              349

Satellite: CP3
Catalog number: 31129
Epoch time:      11103.60029629
Element set:    0844
Inclination:      097.9043 deg
RA of node:       131.5311 deg
Eccentricity:    0.0102266
Arg of perigee:   022.0972 deg
Mean anomaly:     338.4586 deg
Mean motion:   14.52437831 rev/day
Decay rate:       9.26e-06 rev/day^2
Epoch rev:           21146
Checksum:              276

Satellite: CO-65
Catalog number: 32785
Epoch time:      11104.67822514
Element set:     963
Inclination:      097.8537 deg
RA of node:       169.7717 deg
Eccentricity:    0.0015534
Arg of perigee:   026.8800 deg
Mean anomaly:     333.3221 deg
Mean motion:   14.81925640 rev/day
Decay rate:      1.110e-05 rev/day^2
Epoch rev:           16013
Checksum:              295

Satellite: KKS-1
Catalog number: 33493
Epoch time:      11104.74616810
Element set:     487
Inclination:      098.1157 deg
RA of node:       232.4719 deg
Eccentricity:    0.0018873
Arg of perigee:   244.7714 deg
Mean anomaly:     115.1540 deg
Mean motion:   14.81532396 rev/day
Decay rate:      2.707e-05 rev/day^2
Epoch rev:           12012
Checksum:              287

Satellite: SOHLA-1
Catalog number: 33496
Epoch time:      11103.98110680
Element set:    0386
Inclination:      098.0734 deg
RA of node:       214.4856 deg
Eccentricity:    0.0006161
Arg of perigee:   336.8113 deg
Mean anomaly:     023.2798 deg
Mean motion:   14.69590384 rev/day
Decay rate:       2.60e-06 rev/day^2
Epoch rev:           11905
Checksum:              296

Satellite: TISAT-1
Catalog number: 36799
Epoch time:      11104.67480854
Element set:     762
Inclination:      098.1061 deg
RA of node:       172.2840 deg
Eccentricity:    0.0016524
Arg of perigee:   120.6887 deg
Mean anomaly:     239.5948 deg
Mean motion:   14.80450249 rev/day
Decay rate:      1.709e-05 rev/day^2
Epoch rev:            4091
Checksum:              315

Satellite: STUDSAT
Catalog number: 36801
Epoch time:      11103.93973839
Element set:    0168
Inclination:      098.1087 deg
RA of node:       171.3864 deg
Eccentricity:    0.0014429
Arg of perigee:   110.9774 deg
Mean anomaly:     249.2972 deg
Mean motion:   14.80345795 rev/day
Decay rate:      4.852e-05 rev/day^2
Epoch rev:           04079
Checksum:              330

Satellite: RAX
Catalog number: 37223
Epoch time:      11089.46431449
Element set:    0122
Inclination:      071.9716 deg
RA of node:       212.4675 deg
Eccentricity:    0.0019443
Arg of perigee:   068.5267 deg
Mean anomaly:     291.7923 deg
Mean motion:   14.77296529 rev/day
Decay rate:       6.60e-06 rev/day^2
Epoch rev:           01926
Checksum:              313

Satellite: OOREOS
Catalog number: 37224
Epoch time:      11076.42207246
Element set:    0109
Inclination:      071.9712 deg
RA of node:       241.3960 deg
Eccentricity:    0.0017800
Arg of perigee:   096.5373 deg
Mean anomaly:     263.7815 deg
Mean motion:   14.76929834 rev/day
Decay rate:       8.68e-06 rev/day^2
Epoch rev:           01732
Checksum:              300

Satellite: FAST1
Catalog number: 37227
Epoch time:      11103.49751221
Element set:    0138
Inclination:      071.9744 deg
RA of node:       181.9272 deg
Eccentricity:    0.0016545
Arg of perigee:   034.0559 deg
Mean anomaly:     326.1622 deg
Mean motion:   14.76319923 rev/day
Decay rate:       3.72e-06 rev/day^2
Epoch rev:           02131
Checksum:              275

